FW4251 Weather Reports


time (UTC)temp
C
wind
direction
speed
KPH
gust
KPH
rain 1hr
cm
rain 24hr
cm
rain mn
cm
humidity
%
barometer
mb
20260506162530 16 169 4.8 11.3 0.00 0.00 0.00 94 1006.9
20260506162033 16 184 1.6 8.0 0.00 0.00 0.00 93 1007.0
20260506161530 16 175 0.0 9.7 0.00 0.00 0.00 93 1007.1
20260506161029 16 176 3.2 9.7 0.00 0.00 0.00 93 1007.1
20260506160528 16 176 3.2 6.4 0.00 0.00 0.00 93 1007.1
20260506160028 16 175 1.6 9.7 0.00 0.00 0.00 93 1007.1
20260506155528 16 167 3.2 9.7 0.00 0.00 0.00 93 1007.1
20260506155027 16 173 3.2 8.0 0.00 0.00 0.00 93 1007.1
20260506154527 16 163 1.6 12.9 0.00 0.00 0.00 93 1007.1
20260506154027 16 140 1.6 12.9 0.00 0.00 0.00 92 1007.1
20260506153528 16 202 1.6 8.0 0.00 0.00 0.00 92 1007.3
20260506153026 16 170 3.2 8.0 0.00 0.00 0.00 92 1007.3
20260506152528 16 185 3.2 8.0 0.00 0.00 0.00 92 1007.3
20260506152026 16 205 3.2 8.0 0.00 0.00 0.00 91 1007.3
20260506151527 16 213 1.6 11.3 0.00 0.00 0.00 91 1007.3
20260506151027 16 167 6.4 11.3 0.00 0.00 0.00 90 1007.4
20260506150526 16 202 4.8 12.9 0.00 0.00 0.00 89 1007.3
20260506150024 16 201 4.8 12.9 0.00 0.00 0.00 89 1007.4
20260506145525 16 208 4.8 11.3 0.00 0.00 0.00 89 1007.5
20260506145025 16 215 1.6 11.3 0.00 0.00 0.00 89 1007.3
20260506144529 17 171 3.2 9.7 0.00 0.00 0.00 88 1007.4
20260506144024 17 202 1.6 8.0 0.00 0.00 0.00 88 1007.3
20260506143527 17 202 1.6 9.7 0.00 0.00 0.00 87 1007.5
20260506143026 17 205 3.2 12.9 0.00 0.00 0.00 86 1007.5
20260506142522 17 183 4.8 12.9 0.00 0.00 0.00 86 1007.6
20260506142021 17 184 4.8 12.9 0.00 0.00 0.00 85 1007.6
20260506141523 17 221 4.8 14.5 0.00 0.00 0.00 83 1007.7
20260506141024 17 194 4.8 16.1 0.00 0.00 0.00 81 1007.7
20260506140522 18 186 9.7 16.1 0.00 0.00 0.00 80 1007.6
20260506140022 18 183 9.7 19.3 0.00 0.00 0.00 78 1007.7
20260506135521 18 183 9.7 17.7 0.00 0.00 0.00 78 1007.7
20260506135020 18 186 4.8 22.5 0.00 0.00 0.00 77 1007.6
20260506134521 18 150 4.8 17.7 0.00 0.00 0.00 75 1007.5
20260506134021 19 165 8.0 22.5 0.00 0.00 0.00 74 1007.5
20260506133523 19 213 9.7 22.5 0.00 0.00 0.00 74 1007.4
20260506133019 19 185 8.0 19.3 0.00 0.00 0.00 74 1007.3
20260506132526 20 192 8.0 22.5 0.00 0.00 0.00 74 1007.1
20260506132019 19 188 9.7 16.1 0.00 0.00 0.00 74 1007.1
20260506131529 18 211 3.2 19.3 0.00 0.00 0.00 75 1007.0
20260506131019 18 178 6.4 19.3 0.00 0.00 0.00 74 1007.1
20260506130519 18 201 6.4 19.3 0.00 0.00 0.00 74 1007.0
20260506130019 18 151 6.4 16.1 0.00 0.00 0.00 75 1007.0
20260506125519 18 189 6.4 17.7 0.00 0.00 0.00 76 1007.1
20260506125020 18 205 6.4 17.7 0.00 0.00 0.00 75 1007.3
20260506124517 18 169 3.2 14.5 0.00 0.00 0.00 76 1007.2
20260506124017 18 192 6.4 14.5 0.00 0.00 0.00 75 1007.3
20260506123517 18 196 3.2 14.5 0.00 0.00 0.00 75 1007.2
20260506123017 18 197 6.4 16.1 0.00 0.00 0.00 75 1007.4
20260506122517 18 206 6.4 16.1 0.00 0.00 0.00 75 1007.6
20260506122015 18 190 8.0 16.1 0.00 0.00 0.00 76 1007.5
20260506121515 18 190 4.8 16.1 0.00 0.00 0.00 77 1007.5
20260506121016 18 183 6.4 16.1 0.00 0.00 0.00 76 1007.6
20260506120515 18 112 3.2 12.9 0.00 0.00 0.00 77 1007.7
20260506120019 18 178 6.4 12.9 0.00 0.00 0.00 76 1007.7
20260506115519 18 194 3.2 11.3 0.00 0.00 0.00 76 1007.6
20260506115015 17 196 3.2 11.3 0.00 0.00 0.00 76 1007.8
20260506114516 17 206 6.4 11.3 0.00 0.00 0.00 76 1007.7
20260506114014 17 230 4.8 8.0 0.00 0.00 0.00 76 1007.6
20260506113514 17 144 3.2 11.3 0.00 0.00 0.00 77 1007.5
20260506113014 17 168 4.8 11.3 0.00 0.00 0.00 76 1007.4
20260506112513 17 176 1.6 11.3 0.00 0.00 0.00 76 1007.5
20260506112013 17 215 3.2 11.3 0.00 0.00 0.00 76 1007.4
20260506111513 17 153 3.2 11.3 0.00 0.00 0.00 75 1007.3
20260506111012 17 244 6.4 14.5 0.00 0.00 0.00 75 1007.4
20260506110512 17 152 4.8 14.5 0.00 0.00 0.00 74 1007.4
20260506110012 17 169 4.8 11.3 0.00 0.00 0.00 74 1007.4
20260506105511 17 187 3.2 19.3 0.00 0.00 0.00 74 1007.3
20260506105014 17 168 3.2 11.3 0.00 0.00 0.00 75 1007.3
20260506104511 17 182 3.2 9.7 0.00 0.00 0.00 75 1007.3
20260506104010 17 176 4.8 11.3 0.00 0.00 0.00 75 1007.3
20260506103514 17 218 3.2 9.7 0.00 0.00 0.00 74 1007.3
20260506103010 17 174 4.8 9.7 0.00 0.00 0.00 74 1007.3
20260506102510 17 171 4.8 9.7 0.00 0.00 0.00 74 1007.1
20260506102010 17 198 1.6 11.3 0.00 0.00 0.00 73 1007.0
20260506101521 17 190 1.6 11.3 0.00 0.00 0.00 72 1007.1
20260506101008 17 154 1.6 11.3 0.00 0.00 0.00 72 1007.3
20260506100508 17 194 3.2 9.7 0.00 0.00 0.00 72 1007.2
20260506100008 17 157 3.2 11.3 0.00 0.00 0.00 71 1007.1
20260506095508 17 193 4.8 11.3 0.00 0.00 0.00 71 1007.1
20260506095008 17 190 4.8 12.9 0.00 0.00 0.00 71 1007.2
20260506094519 17 194 3.2 14.5 0.00 0.00 0.00 70 1007.2
20260506094008 17 182 6.4 16.1 0.00 0.00 0.00 71 1007.3
20260506093506 17 195 3.2 16.1 0.00 0.00 0.00 71 1007.4
20260506093013 17 186 4.8 12.9 0.00 0.00 0.00 72 1007.3
20260506092506 17 212 3.2 11.3 0.00 0.00 0.00 73 1007.2
20260506092011 16 164 3.2 12.9 0.00 0.00 0.00 75 1007.1
20260506091505 16 173 1.6 12.9 0.00 0.00 0.00 79 1007.1
20260506091005 15 191 3.2 14.5 0.00 0.00 0.00 83 1007.2
20260506090504 14 196 1.6 6.4 0.00 0.00 0.00 86 1007.4
20260506090003 14 85 0.0 1.6 0.00 0.00 0.00 86 1007.3
20260506085502 14 85 0.0 3.2 0.00 0.00 0.00 85 1007.4
20260506085002 15 85 0.0 3.2 0.00 0.00 0.00 85 1007.5
20260506084624 15 85 0.0 3.2 0.00 0.00 0.00 85 1007.4
20260506084100 15 85 0.0 3.2 0.00 0.00 0.00 84 1007.5
20260506083558 15 85 0.0 3.2 0.00 0.00 0.00 83 1007.6
20260506083058 15 85 0.0 4.8 0.00 0.00 0.00 83 1007.6
20260506082556 15 85 0.0 4.8 0.00 0.00 0.00 82 1007.8
20260506082056 15 85 0.0 4.8 0.00 0.00 0.00 81 1007.7
20260506081556 16 85 0.0 4.8 0.00 0.00 0.00 80 1007.7
20260506081053 16 85 0.0 3.2 0.00 0.00 0.00 78 1007.8
20260506080553 16 85 0.0 6.4 0.00 0.00 0.00 77 1007.7
20260506073047 18 218 3.2 8.0 0.00 0.00 0.00 62 1007.6
20260506072543 19 219 3.2 8.0 0.00 0.00 0.00 62 1007.5
20260506072044 19 211 3.2 8.0 0.00 0.00 0.00 61 1007.5
20260506071541 19 232 3.2 9.7 0.00 0.00 0.00 61 1007.6
20260506071040 19 166 4.8 9.7 0.00 0.00 0.00 60 1007.6
20260506070540 20 175 4.8 9.7 0.00 0.00 0.00 60 1007.6
20260506062034 20 209 6.4 14.5 0.00 0.00 0.00 58 1008.0
20260506061534 20 168 6.4 19.3 0.00 0.00 0.00 58 1008.0
20260506061033 20 160 6.4 19.3 0.00 0.00 0.00 57 1008.0
20260506060532 20 119 4.8 17.7 0.00 0.00 0.00 57 1008.0
20260506051026 21 188 9.7 19.3 0.00 0.00 0.00 53 1008.1
20260506050524 21 169 4.8 19.3 0.00 0.00 0.00 53 1008.2
20260506045022 20 227 3.2 12.9 0.00 0.00 0.00 53 1008.0
20260506044548 21 213 4.8 14.5 0.00 0.00 0.00 53 1008.0
20260506044020 21 236 6.4 14.5 0.00 0.00 0.00 52 1008.0
20260506043520 21 213 6.4 11.3 0.00 0.00 0.00 52 1007.9
20260506043018 21 203 3.2 11.3 0.00 0.00 0.00 52 1008.0
20260506042518 21 161 4.8 11.3 0.00 0.00 0.00 52 1008.0
20260506042021 21 162 4.8 11.3 0.00 0.00 0.00 52 1008.0
20260506041515 21 219 4.8 16.1 0.00 0.00 0.00 51 1008.0
20260506041017 21 226 6.4 16.1 0.00 0.00 0.00 50 1007.9
20260506040514 21 188 6.4 16.1 0.00 0.00 0.00 50 1007.8
20260506040013 21 207 6.4 20.9 0.00 0.00 0.00 50 1007.8
20260506035513 21 186 6.4 17.7 0.00 0.00 0.00 50 1007.8
20260506035013 21 194 8.0 17.7 0.00 0.00 0.00 49 1007.6
20260506034532 21 203 8.0 17.7 0.00 0.00 0.00 49 1007.8
20260506034013 21 207 6.4 19.3 0.00 0.00 0.00 49 1007.6
20260506033512 21 176 8.0 19.3 0.00 0.00 0.00 48 1007.6
20260506033012 21 194 8.0 17.7 0.00 0.00 0.00 48 1007.7
20260506032512 22 211 6.4 16.1 0.00 0.00 0.00 48 1007.7
20260506032012 22 178 8.0 16.1 0.00 0.00 0.00 47 1007.7
20260506031512 22 227 8.0 16.1 0.00 0.00 0.00 47 1007.7
20260506031012 22 183 8.0 24.1 0.00 0.00 0.00 46 1007.7
20260506030512 22 165 9.7 24.1 0.00 0.00 0.00 46 1007.7
20260506030011 22 180 8.0 17.7 0.00 0.00 0.00 47 1007.7
20260506025510 22 175 8.0 19.3 0.00 0.00 0.00 47 1007.6
20260506025011 22 202 8.0 19.3 0.00 0.00 0.00 46 1007.7
20260506024511 22 225 8.0 19.3 0.00 0.00 0.00 46 1007.7
20260506024011 22 152 8.0 19.3 0.00 0.00 0.00 46 1007.8
20260506023511 22 213 8.0 16.1 0.00 0.00 0.00 45 1007.8
20260506023010 22 177 6.4 14.5 0.00 0.00 0.00 46 1007.9
20260506022509 22 184 6.4 14.5 0.00 0.00 0.00 46 1007.8
20260506022009 22 192 6.4 14.5 0.00 0.00 0.00 45 1007.8
20260506021510 22 191 4.8 12.9 0.00 0.00 0.00 45 1007.8
20260506021010 22 201 6.4 16.1 0.00 0.00 0.00 45 1007.7
20260506020509 22 195 3.2 16.1 0.00 0.00 0.00 45 1007.7
20260506020009 22 202 3.2 8.0 0.00 0.00 0.00 45 1007.6
20260506015509 22 199 3.2 9.7 0.00 0.00 0.00 45 1007.6
20260506015011 22 186 4.8 12.9 0.00 0.00 0.00 45 1007.7
20260506014512 23 223 4.8 12.9 0.00 0.00 0.00 45 1007.6
20260506014008 23 205 6.4 14.5 0.00 0.00 0.00 44 1007.4
20260506013508 23 217 6.4 14.5 0.00 0.00 0.00 45 1007.4
20260506013008 23 227 8.0 14.5 0.00 0.00 0.00 44 1007.5
20260506012508 23 207 3.2 11.3 0.00 0.00 0.00 44 1007.2
20260506012008 23 183 3.2 11.3 0.00 0.00 0.00 43 1007.2
20260506011512 23 216 4.8 11.3 0.00 0.00 0.00 43 1007.3
20260506011009 23 232 3.2 12.9 0.00 0.00 0.00 43 1007.2
20260506010507 23 181 4.8 19.3 0.00 0.00 0.00 43 1007.1
20260506010007 23 200 8.0 19.3 0.00 0.00 0.00 43 1007.1
20260506005508 23 203 6.4 19.3 0.00 0.00 0.00 43 1007.0
20260506005006 23 189 6.4 19.3 0.00 0.00 0.00 43 1006.9
20260506004510 23 232 6.4 19.3 0.00 0.00 0.00 43 1007.0
20260506004006 24 219 9.7 19.3 0.00 0.00 0.00 41 1006.9
20260506003506 24 221 8.0 29.0 0.00 0.00 0.00 42 1006.9
20260506003005 24 163 8.0 24.1 0.00 0.00 0.00 41 1006.7
20260506002508 24 192 8.0 25.7 0.00 0.00 0.00 41 1006.6
20260506002005 24 175 11.3 25.7 0.00 0.00 0.00 41 1006.6
20260506001504 24 186 9.7 17.7 0.00 0.00 0.00 41 1006.6
20260506001005 24 209 8.0 25.7 0.00 0.00 0.00 41 1006.6
20260506000507 24 257 11.3 25.7 0.00 0.00 0.00 41 1006.4
20260506000004 24 183 8.0 17.7 0.00 0.00 0.00 41 1006.6
20260505235504 24 163 6.4 20.9 0.00 0.00 0.00 40 1006.6
20260505235003 24 173 6.4 20.9 0.00 0.00 0.00 40 1006.5
20260505234507 24 197 8.0 24.1 0.00 0.00 0.00 40 1006.3
20260505234004 24 181 9.7 24.1 0.00 0.00 0.00 39 1006.3
20260505233506 25 192 6.4 24.1 0.00 0.00 0.00 39 1006.3
20260505233007 25 137 11.3 24.1 0.00 0.00 0.00 39 1006.1
20260505232502 25 183 11.3 25.7 0.00 0.00 0.00 39 1005.9
20260505232002 25 205 8.0 20.9 0.00 0.00 0.00 39 1006.1
20260505231508 25 221 8.0 22.5 0.00 0.00 0.00 38 1005.8
20260505231001 25 174 9.7 22.5 0.00 0.00 0.00 38 1005.8
20260505230502 25 182 12.9 22.5 0.00 0.00 0.00 37 1005.7
20260505230002 25 237 8.0 27.4 0.00 0.00 0.00 37 1005.8
20260505225502 25 237 8.0 20.9 0.00 0.00 0.00 37 1005.7
20260505225001 25 200 8.0 24.1 0.00 0.00 0.00 37 1005.6
20260505224501 25 140 9.7 24.1 0.00 0.00 0.00 36 1005.5
20260505224000 25 192 11.3 22.5 0.00 0.00 0.00 36 1005.5
20260505223501 25 232 9.7 20.9 0.00 0.00 0.00 36 1005.4
20260505223101 25 170 9.7 20.9 0.00 0.00 0.00 36 1005.4
20260505222600 25 198 9.7 22.5 0.00 0.00 0.00 36 1005.3
20260505222503 25 157 8.0 24.1 0.00 0.00 0.00 36 1005.3
20260505222100 25 241 9.7 30.6 0.00 0.00 0.00 36 1005.2
20260505221604 26 227 11.3 30.6 0.00 0.00 0.00 36 1005.0
20260505221100 25 173 8.0 24.1 0.00 0.00 0.00 37 1005.0
20260505220559 26 184 8.0 20.9 0.00 0.00 0.00 37 1005.1
20260505220107 26 169 11.3 20.9 0.00 0.00 0.00 37 1005.1
20260505215559 26 207 4.8 35.4 0.00 0.00 0.00 37 1005.0
20260505215059 26 229 9.7 35.4 0.00 0.00 0.00 36 1005.0
20260505214605 26 188 11.3 32.2 0.00 0.00 0.00 36 1004.8
20260505214059 26 196 12.9 30.6 0.00 0.00 0.00 35 1004.9
20260505213558 26 164 11.3 30.6 0.00 0.00 0.00 35 1005.0
20260505213103 26 192 12.9 30.6 0.00 0.00 0.00 36 1004.7
20260505212558 27 217 8.0 30.6 0.00 0.00 0.00 35 1004.6
20260505212058 27 173 8.0 35.4 0.00 0.00 0.00 36 1004.7
20260505211602 27 213 14.5 33.8 0.00 0.00 0.00 35 1004.7
20260505211100 27 218 12.9 37.0 0.00 0.00 0.00 34 1004.7
20260505210556 27 196 11.3 29.0 0.00 0.00 0.00 33 1004.7
20260505210057 27 231 8.0 32.2 0.00 0.00 0.00 33 1004.5
20260505205557 28 164 14.5 40.2 0.00 0.00 0.00 33 1004.5
20260505205056 28 199 12.9 25.7 0.00 0.00 0.00 34 1004.6
20260505204600 28 194 14.5 53.1 0.00 0.00 0.00 33 1004.5
20260505204056 28 159 11.3 53.1 0.00 0.00 0.00 34 1004.3
20260505203554 27 190 17.7 35.4 0.00 0.00 0.00 34 1004.5
20260505203055 27 170 16.1 37.0 0.00 0.00 0.00 33 1004.4
20260505202553 28 163 11.3 38.6 0.00 0.00 0.00 35 1004.5
20260505202053 28 220 12.9 38.6 0.00 0.00 0.00 34 1004.6
20260505201552 28 188 14.5 35.4 0.00 0.00 0.00 35 1004.6
20260505201051 28 217 16.1 43.5 0.00 0.00 0.00 34 1004.7
20260505200550 28 217 16.1 43.5 0.00 0.00 0.00 34 1004.7
20260505200051 28 201 17.7 38.6 0.00 0.00 0.00 35 1004.7
20260505195549 27 194 14.5 32.2 0.00 0.00 0.00 35 1004.7
20260505195048 27 223 16.1 53.1 0.00 0.00 0.00 35 1004.8
20260505194548 27 181 20.9 53.1 0.00 0.00 0.00 34 1005.1
20260505194049 28 203 20.9 41.8 0.00 0.00 0.00 36 1004.9
20260505193545 27 222 12.9 38.6 0.00 0.00 0.00 35 1004.9
20260505193047 27 222 19.3 38.6 0.00 0.00 0.00 35 1005.1
20260505192542 27 179 17.7 48.3 0.00 0.00 0.00 36 1005.1
20260505192042 27 192 20.9 48.3 0.00 0.00 0.00 35 1005.4
20260505191553 27 183 20.9 41.8 0.00 0.00 0.00 38 1005.1
20260505191042 26 226 11.3 35.4 0.00 0.00 0.00 38 1005.3
20260505190540 27 198 19.3 38.6 0.00 0.00 0.00 36 1005.6
20260505190044 27 119 17.7 35.4 0.00 0.00 0.00 38 1005.4
20260505185540 28 171 16.1 30.6 0.00 0.00 0.00 37 1005.5
20260505185039 28 234 16.1 33.8 0.00 0.00 0.00 37 1005.6
20260505184538 28 193 9.7 35.4 0.00 0.00 0.00 38 1005.4
20260505184039 28 218 16.1 43.5 0.00 0.00 0.00 38 1005.3
20260505183536 28 213 14.5 43.5 0.00 0.00 0.00 37 1005.3
20260505183034 28 205 11.3 41.8 0.00 0.00 0.00 38 1005.7
20260505182535 27 243 17.7 41.8 0.00 0.00 0.00 37 1005.8
20260505182033 27 159 16.1 37.0 0.00 0.00 0.00 39 1005.9
20260505181532 27 199 16.1 37.0 0.00 0.00 0.00 39 1005.7
20260505181030 27 225 19.3 29.0 0.00 0.00 0.00 39 1005.8
20260505180530 27 149 11.3 37.0 0.00 0.00 0.00 41 1005.7
20260505180043 27 164 14.5 32.2 0.00 0.00 0.00 40 1005.8
20260505175528 27 162 11.3 32.2 0.00 0.00 0.00 43 1005.8
20260505175031 27 217 14.5 35.4 0.00 0.00 0.00 41 1005.8
20260505174536 27 177 17.7 38.6 0.00 0.00 0.00 41 1006.0
20260505174025 27 194 19.3 35.4 0.00 0.00 0.00 42 1006.0
20260505173524 27 163 14.5 35.4 0.00 0.00 0.00 45 1006.2
20260505173023 27 133 9.7 30.6 0.00 0.00 0.00 42 1006.2
20260505172522 27 178 14.5 30.6 0.00 0.00 0.00 42 1006.3
20260505172021 27 155 16.1 32.2 0.00 0.00 0.00 42 1006.2
20260505171524 27 168 16.1 35.4 0.00 0.00 0.00 43 1006.2
20260505171020 27 185 11.3 35.4 0.00 0.00 0.00 48 1006.2
20260505170519 27 188 8.0 30.6 0.00 0.00 0.00 48 1006.2
20260505170025 27 167 6.4 22.5 0.00 0.00 0.00 48 1006.3
20260505165521 27 157 6.4 24.1 0.00 0.00 0.00 51 1006.3
20260505165016 26 134 6.4 30.6 0.00 0.00 0.00 49 1006.4
20260505164518 26 144 9.7 30.6 0.00 0.00 0.00 46 1006.6
20260505164014 26 162 4.8 25.7 0.00 0.00 0.00 49 1006.8
20260505163514 26 217 14.5 25.7 0.00 0.00 0.00 45 1007.1
20260505163011 26 130 4.8 25.7 0.00 0.00 0.00 50 1007.0